USA 40 R/B, 20344

Orbit data source: Space-Track

USA 40 R/B, 20344 is space debris originally from a launch on Tue, 08 Aug 1989 UTC launched from the Air Force Eastern Test Range (AFETR). Debris objects in space refer to the collection of defunct objects orbiting the Earth. Examples of debris include non-operational satellites, rocket bodies, and fragments generated from explosions, collisions, or faulty payload assembly.

Loading next visibility...
Identifier
20344, 1989-061D
Orbit
Active
Country
Flag of USUS
Related business
Manufacturer
Thiokol/UT
Mission
Spacecraft
Bus & Motor
MM3-PKM, Unknown motor
Mass
Wet unknown, ~200 kg dry
Launch date (UTC)
1989-08-08 (37 years ago)
Launch vehicle
Unknown
Launch site
Air Force Eastern Test Range (AFETR)
Object type
Payload
Rocket body
Debris
Shape & HBR
Cyl + Cone, 1.3 m
Radar Cross Section
3.519 m², Large (>1 m²)

Expand to show TLE details & history
Last TLE update: 2 days ago

TLE from 2 days ago
0 USA 40 R/B
1 20344U 89061D   26171.44141546  .00000164  00000-0  14453-3 0  9994
2 20344  57.0134 229.6101 3560587 316.3745  20.4242  7.88972360212985
Epoch: 2026-06-20T10:35Z
TLE epoch observation values (Epoch: 2026-06-20T10:35:38.295Z)
Latitude
-0.00006°
Longitude
162.04451°
Altitude
1,025.539 km
Speed
8.385 km/s
True Right ascension
15h 18m 26s
True Declination
0° 00' 00"
Sunlit
Object was in full shadow at epoch
Visualization orbit readout
Latitude
Unknown
Longitude
Unknown
Altitude
Unknown
Speed
Unknown
Apparent Right ascension
Unknown
Apparent Declination
Unknown
Sunlit
N/A
Visualization observer readout
Local Sidereal Time
00:50:20
Azimuth
Unknown
Elevation
Unknown
Doppler factor
Unknown
Orbital elements
Apogee altitude
8,074.973 km
Perigee altitude
485.102 km
Semi-major axis
10,658.174 km
Eccentricity
0.35606
Inclination
57.0134°
RAAN
229.6101°
Arg. of periapsis
316.3745°
True anomaly
43.71094°
Mean anomaly
20.4242°
Eccentric anomaly
30.90112°
Mean motion
1.97251 °/min
Orbital period
182.51 mins
BSTAR
0.00014453
Loading maneuver chart data...
Computing Atmospheric mass density...
Loading historical data...
Loading historical data...
Loading historical data...
Loading historical data...
Loading historical data...
Loading historical data...
Loading historical data...

Documentation

Showing up to 5 results
|